Hourly Data Report for September 07, 2017

All times are specified in Local Standard Time (LST). Add 1 hour to adjust for Daylight Saving Time where and when it is observed.

PANGNIRTUNG
NUNAVUT

66°08'36.300" N
65°42'40.500" W
22.60 m
2403049
71826
WXP

Download Data

Hourly Data (September 2017)
Hourly Data Report for September 7, 2017
Temp Definition
°C
Dew Point Temp Definition
°C
Rel Hum Definition
%
Wind Dir Definition
10's deg

Wind Spd Definition
km/h
Visibility Definition
km
Stn Press Definition
kPa
Hmdx Definition


Wind Chill Definition


Weather Definition


TIME
00:00 1.9 0.1 88 14 2   100.82     LegendNANA
01:00 1.6 0.1 90 12 2   100.87     LegendNANA
02:00 1.8 0.0 88 11 2   100.92     LegendNANA
03:00 2.6 0.2 85 15 1   100.95     LegendNANA
04:00 2.3 0.0 85   0   100.99     LegendNANA
05:00 1.8 -0.3 86   0   101.03     LegendNANA
06:00 2.5 -0.1 83 23 2   101.08     LegendNANA
07:00 3.0 0.6 84 24 1   101.11     LegendNANA
08:00 4.0 1.4 83 27 4   101.15     LegendNANA
09:00 3.7 1.1 83 28 7   101.17     LegendNANA
10:00 4.7 1.9 82 24 11   101.17     LegendNANA
11:00 4.2 1.9 85 24 17   101.19     LegendNANA
12:00 3.1 2.0 92 25 24   101.20     LegendNANA
13:00 4.1 2.1 87 25 26   101.19     LegendNANA
14:00 4.5 2.0 84 25 25   101.18     LegendNANA
15:00 4.5 1.0 78 25 25   101.19     LegendNANA
16:00 4.5 0.7 76 26 23   101.20     LegendNANA
17:00 3.7 0.3 79 25 22   101.20     LegendNANA
18:00 2.0 -0.1 86 24 18   101.19     LegendNANA
19:00 2.0 -0.2 85 22 12   101.18     LegendNANA
20:00 1.5 -0.6 86 21 7   101.15     LegendNANA
21:00 2.2 -0.4 83 18 5   101.12     LegendNANA
22:00 1.2 -0.8 87 20 4   101.09     LegendNANA
23:00 0.6 -1.3 87 22 4   101.07     LegendNANA

Notes on Data Quality.

Legend

  • E = Estimated
  • M = Missing
  • NA = Not Available
  • ‡ = Partner data that is not subject to review by the National Climate Archives
Date modified: